Flag for Germany Weather past 2 weeks in Weimar, Thuringia, Germany

Now
63 °F

Passing clouds.


Feels Like: 63 °F
Forecast: 47 / 70 °F
Wind: 9 mph from Northeast

Location: Erfurt-Bindersleben


UV Index: 3 (Moderate)

Visibility: N/A


Pressure: 30.12 "Hg

Humidity: 77%

Dew point: 55 °F

Location of WeimarLocation

Historic Weather in Weimar

°F

Weimar temperature yesterday

Maximum temperature yesterday: 66 °F (at 3:20 PM)
Minimum temperature yesterday: 41 °F (at 4:20 AM)
Average temperature yesterday: 55 °F

Past Weeks' High & Low Weather Summary

 TemperatureHumidityPressure
High66 °F (Apr 23, 3:20 PM)100% (Apr 10, 7:20 AM)30.42 "Hg (Apr 10, 7:20 AM)
Low30 °F (Apr 17, 6:50 AM)31% (Apr 17, 4:50 PM)29.65 "Hg (Apr 21, 1:50 PM)
Average48 °F77%30.02 "Hg
* Reported Apr 9 1:20 PM — Apr 24 1:20 PM, Weimar, Weather by CustomWeather, © 2014

Note: Actual official high and low records may vary slightly from our data, if they occured in-between our weather recording intervals... More about our weather records

Advertising

Historic Weather Conditions — Data for Previous 24 hours

 ConditionsComfort  
Time TempWeatherWind HumidityBarometerVisibility
1:20 PM
Apr 24
61 °FPassing clouds.10 mph83%30.12 "Hg4 mi
12:50 PM61 °FFog.9 mph77%30.12 "Hg3 mi
12:20 PM59 °FFog.10 mph82%30.12 "Hg3 mi
11:50 AM59 °FPassing clouds.10 mph77%30.12 "Hg4 mi
11:20 AM59 °FClear.8 mph82%30.15 "Hg4 mi
10:50 AM57 °FClear.6 mph82%30.15 "Hg4 mi
10:20 AM55 °FClear.5 mph82%30.15 "Hg4 mi
9:20 AM54 °FClear.5 mph88%30.15 "Hg4 mi
8:50 AM52 °FClear.3 mph94%30.15 "Hg4 mi
8:20 AM50 °FClear.3 mph94%30.12 "Hg4 mi
7:50 AM48 °FClear.5 mph94%30.12 "Hg4 mi
7:20 AM45 °FClear.6 mph100%30.12 "Hg4 mi
6:50 AM43 °FClear.7 mph100%30.12 "Hg4 mi
6:20 AM43 °FFog.7 mph93%30.12 "Hg4 mi
5:50 AM43 °FFog.7 mph93%30.12 "Hg5 mi
5:20 AM45 °FPassing clouds.7 mph93%30.12 "HgN/A
4:50 AM43 °FClear.5 mph93%30.12 "Hg10 mi
4:20 AM46 °FClear.3 mph93%30.12 "Hg10 mi
3:50 AM46 °FClear.3 mph93%30.12 "Hg10 mi
3:20 AM46 °FClear.3 mph87%30.12 "Hg10 mi
2:50 AM48 °FClear.3 mph87%30.12 "Hg10 mi
2:20 AM48 °FClear.2 mph87%30.12 "Hg10 mi
1:50 AM52 °FClear.1 mph82%30.12 "Hg10 mi
1:20 AM52 °FClear.2 mph82%30.12 "Hg10 mi
12:50 AM54 °FClear.2 mph77%30.12 "Hg10 mi
12:20 AM54 °FClear.2 mph82%30.12 "Hg10 mi
11:50 PM
Apr 23
55 °FClear.2 mph72%30.12 "Hg10 mi
11:20 PM57 °FClear.3 mph67%30.12 "Hg10 mi
10:50 PM57 °FClear.2 mph72%30.12 "Hg10 mi
10:20 PM57 °FClear.5 mph72%30.12 "Hg10 mi
9:50 PM57 °FClear.6 mph72%30.12 "Hg10 mi
9:20 PM59 °FSunny.3 mph68%30.12 "Hg10 mi
8:50 PM59 °FSunny.5 mph72%30.12 "Hg10 mi
8:20 PM59 °FSunny.5 mph72%30.09 "Hg10 mi
7:50 PM61 °FSunny.6 mph68%30.09 "Hg10 mi
7:20 PM63 °FSunny.6 mph64%30.09 "Hg10 mi
6:50 PM63 °FSunny.7 mph64%30.09 "Hg10 mi
6:20 PM64 °FSunny.8 mph60%30.09 "Hg10 mi
5:50 PM64 °FSunny.7 mph60%30.09 "Hg10 mi
5:20 PM66 °FSunny.5 mph43%30.09 "Hg10 mi
4:50 PM66 °FScattered clouds.6 mph49%30.09 "HgN/A
4:20 PM66 °FPartly sunny.3 mph46%30.09 "HgN/A
3:50 PM66 °FPartly sunny.5 mph46%30.09 "HgN/A
3:20 PM66 °FPartly sunny.2 mph49%30.09 "HgN/A
2:50 PM64 °FPartly sunny.3 mph49%30.12 "HgN/A
2:20 PM64 °FScattered clouds.6 mph46%30.12 "HgN/A
Weather by CustomWeather, © 2014

See weather overview